Theta_e
308 309 308 308 308 308 308 309 308 308 309 309 309 309 309 309 309 310 310 310 310 310 311 311 311 311 311 311 311 311 311 311 312 313 314 314 314 314 313 313 314 314 314 315 315 314 313 313 313 313 314 313 314 315 316 316 314 317 327 326 314 315 316 315 321 318 315 318 314 313 313 314 315 315 314 315 315 314 314 314 315 315 314 314 313 313 314 314
309 309 309 309 309 309 309 309 309 309 309 309 309 309 309 310 310 310 310 310 310 310 311 310 310 310 310 311 311 311 311 312 312 313 314 314 314 314 314 314 315 315 314 315 315 314 314 314 313 313 313 313 314 315 315 316 315 319 325 321 317 321 315 312 317 313 313 315 313 314 313 313 315 314 314 314 315 314 314 314 314 314 314 313 314 314 314 314
310 310 309 309 309 309 309 309 309 309 309 309 309 309 310 310 310 310 310 310 310 310 310 310 310 310 311 311 311 311 311 312 313 313 314 314 314 314 314 315 315 315 315 315 315 314 314 314 313 313 313 313 314 314 314 316 315 315 319 322 323 319 312 311 313 313 314 314 313 314 313 312 314 313 313 313 313 312 313 314 314 313 313 313 314 314 314 314
311 311 310 310 310 309 310 309 309 310 309 310 309 310 310 310 310 310 310 310 310 310 310 310 310 310 311 311 311 311 311 313 314 313 314 313 314 314 315 316 315 315 315 315 314 314 314 313 313 313 314 313 313 314 314 315 315 314 318 323 319 311 313 314 314 314 314 314 314 313 312 313 313 313 313 312 313 313 312 313 312 312 313 313 313 313 314 314
312 311 311 310 310 310 310 310 310 310 310 310 310 310 310 310 310 310 310 310 310 310 310 310 310 310 310 310 311 310 312 315 315 313 313 314 314 314 315 315 315 315 315 315 314 313 313 313 313 314 314 313 313 314 314 314 314 315 316 316 313 310 315 316 314 315 314 313 313 312 313 313 312 312 312 312 313 313 311 311 312 312 312 313 313 313 313 313
312 312 311 311 311 310 310 310 310 310 310 310 310 310 310 310 310 310 310 310 310 310 310 310 310 310 310 311 311 311 312 314 314 313 314 314 314 314 315 315 315 315 315 316 314 313 313 313 313 314 313 313 313 313 314 315 314 317 316 312 313 313 314 315 314 314 313 312 312 312 312 312 311 312 312 311 311 311 311 311 311 311 312 312 312 313 313 314
312 312 312 312 311 311 310 310 310 310 310 309 310 310 310 310 310 310 310 310 310 310 310 310 310 310 310 310 311 312 313 313 313 313 314 314 314 314 314 315 315 315 315 316 314 313 313 313 314 313 313 312 312 311 313 314 313 317 318 313 313 313 313 314 313 313 312 312 312 312 311 311 312 312 311 310 309 310 310 310 311 311 311 311 312 312 312 313
311 311 312 312 311 311 311 310 310 309 310 309 310 310 310 309 309 310 310 310 310 310 310 310 310 310 310 311 312 314 314 314 314 314 314 314 314 314 315 315 315 315 316 316 314 313 313 313 314 313 313 312 312 312 311 313 313 317 318 313 313 313 313 313 312 313 313 312 313 312 311 311 311 311 310 309 309 309 309 310 310 310 311 312 312 312 312 312
310 310 311 311 311 311 311 311 310 310 310 309 310 309 310 309 309 309 309 309 310 310 310 310 310 310 311 312 314 315 315 315 315 316 316 316 316 315 316 316 316 317 317 316 314 313 313 313 313 314 313 312 312 312 311 314 315 314 314 312 312 312 312 313 313 313 313 312 312 311 311 311 310 311 310 308 308 309 309 310 311 311 312 313 312 312 312 312
309 309 309 310 310 311 311 311 310 310 310 310 310 309 309 309 309 309 309 309 309 310 310 310 311 312 314 315 316 317 316 317 318 318 318 318 318 318 318 318 318 318 317 316 315 314 313 313 314 314 313 313 313 312 311 314 314 312 311 311 312 312 312 312 313 312 312 312 311 312 313 310 309 312 312 308 308 309 310 311 311 311 312 312 312 311 312 311
308 308 308 309 309 309 309 310 310 309 309 309 309 309 309 309 309 309 309 310 310 311 312 313 314 315 316 316 316 317 317 318 319 320 320 319 320 319 320 319 319 318 318 316 315 314 313 313 314 314 314 314 313 312 311 312 312 311 311 313 313 311 312 312 311 311 312 312 311 311 311 309 309 312 311 308 308 309 311 312 311 311 311 310 311 311 311 311
307 307 307 307 308 308 308 308 308 308 308 308 308 308 309 309 309 310 310 311 313 314 315 316 317 317 317 316 316 317 317 318 319 319 319 319 319 319 318 318 318 318 318 316 315 314 314 314 314 314 315 314 313 313 313 312 311 312 311 314 316 314 315 312 309 309 311 313 311 310 314 316 313 310 309 308 309 310 311 311 310 310 309 309 310 310 310 310
307 307 307 307 307 307 307 307 307 308 308 308 308 308 309 310 311 312 314 315 316 317 317 317 317 316 316 316 317 318 318 318 318 317 317 317 317 317 317 316 317 317 317 315 315 315 316 316 314 315 314 313 314 313 313 311 310 313 310 312 316 318 319 312 308 310 310 311 310 311 318 322 313 307 308 309 308 309 310 309 308 308 308 308 309 309 310 309
307 307 306 306 307 307 307 307 307 308 308 309 310 311 312 314 315 316 317 317 317 317 317 316 316 316 315 316 317 317 317 317 317 317 317 317 316 316 316 316 316 316 315 315 316 316 316 316 315 315 313 314 313 312 315 313 313 315 310 314 318 317 323 316 307 311 313 311 310 312 320 322 313 306 308 310 309 310 309 307 306 306 307 307 307 308 309 308
307 307 307 307 307 307 307 308 308 309 310 312 313 315 316 317 317 317 317 317 316 316 316 316 316 316 315 316 317 317 317 317 317 317 317 317 316 316 316 315 315 315 315 315 316 316 316 316 315 315 313 313 313 314 320 320 321 320 314 322 322 315 326 322 307 308 313 310 309 312 319 321 312 306 308 309 309 310 308 306 305 305 306 306 306 307 307 306
307 307 307 307 308 308 309 310 311 313 314 315 316 317 317 317 317 316 316 315 316 315 315 316 316 316 316 316 316 317 317 317 317 316 316 316 315 316 315 315 315 315 315 315 315 315 315 315 314 313 312 312 315 322 326 323 324 322 316 323 325 317 321 320 310 307 309 309 310 312 317 319 312 304 308 309 308 310 307 305 304 304 305 305 305 305 305 305
307 307 307 308 309 310 311 313 315 316 317 318 318 318 317 316 316 315 315 315 315 315 315 316 316 316 316 316 316 316 316 317 316 316 316 315 315 315 315 315 315 315 315 315 315 315 315 315 313 313 312 311 314 323 326 322 325 325 316 317 322 318 316 318 316 310 308 311 313 313 314 317 312 304 306 308 307 309 306 304 304 303 304 304 304 304 304 305
307 308 309 310 311 313 314 315 316 317 317 317 317 316 316 315 315 314 315 314 314 315 315 316 315 317 319 317 316 317 317 317 316 316 316 315 315 315 314 315 314 314 315 314 315 315 314 313 313 316 315 312 314 319 322 323 327 329 321 319 321 317 315 317 318 312 311 314 316 315 315 316 314 307 304 305 306 307 304 302 303 302 303 303 303 304 305 306
308 309 310 312 313 314 315 316 316 316 316 316 315 314 314 314 314 314 314 315 315 317 318 317 316 319 320 316 316 316 317 316 316 316 316 316 315 315 315 314 315 314 314 314 314 313 313 312 313 317 317 314 315 316 319 321 323 326 326 325 324 320 317 317 317 312 310 314 317 316 316 316 315 311 304 303 304 304 302 301 301 301 302 303 303 304 305 305
308 310 312 313 314 315 316 316 316 315 315 315 314 313 314 315 316 316 315 315 316 317 317 317 316 317 317 316 316 316 316 316 316 316 316 316 315 315 314 313 314 313 312 316 316 310 311 316 317 318 318 316 314 313 316 319 318 319 321 323 322 320 318 317 316 311 307 313 317 314 315 315 314 311 303 301 302 301 300 300 300 300 301 302 303 303 303 304
310 311 313 314 315 315 315 315 315 314 314 313 313 314 315 315 317 318 317 317 317 317 317 317 316 316 316 316 317 316 316 316 316 316 316 315 315 315 313 312 313 313 311 312 312 309 312 317 318 318 315 314 313 312 313 316 315 315 317 318 318 318 318 314 313 311 307 312 317 313 314 316 314 309 302 300 302 300 299 299 299 299 300 300 301 301 302 303
312 313 314 315 315 314 314 313 314 313 313 312 313 314 314 315 316 317 317 318 318 317 318 318 317 318 317 316 317 316 316 316 316 316 315 315 315 314 313 313 315 316 312 310 312 313 314 316 317 313 309 310 313 312 311 312 312 314 315 316 316 315 316 315 312 311 309 311 317 315 313 316 313 304 300 299 300 299 299 299 298 299 299 299 300 300 301 302
314 315 315 316 315 314 313 313 313 313 312 313 313 313 314 315 316 316 317 319 320 319 318 319 319 318 319 318 317 317 316 316 317 316 316 315 314 313 312 312 316 317 314 313 316 317 318 320 316 308 307 312 315 313 312 312 311 313 315 315 316 314 316 320 315 312 311 310 314 315 313 315 311 303 301 299 298 298 298 299 298 298 299 299 299 300 301 302
317 317 316 315 314 313 312 313 313 313 313 313 312 313 314 315 316 317 318 319 321 320 318 319 319 318 320 318 318 318 316 317 317 316 316 315 313 313 312 312 316 317 314 314 316 317 320 318 310 307 310 314 315 314 313 314 314 315 315 314 315 316 317 320 316 313 314 311 311 312 315 320 315 309 307 301 299 299 298 298 299 298 299 299 300 300 301 302
317 317 316 314 313 312 313 314 314 313 313 313 313 313 314 316 317 318 318 321 323 320 318 319 319 319 320 319 319 318 316 316 317 317 316 315 315 313 312 311 314 317 315 314 314 316 319 313 308 312 314 313 315 317 316 316 316 318 318 315 315 317 318 318 315 314 318 318 313 311 318 327 321 315 310 303 301 301 298 298 298 299 299 299 300 300 301 302
316 316 315 314 313 313 315 315 314 313 313 313 313 313 315 317 318 318 319 325 327 321 318 319 319 319 319 319 318 317 318 318 316 317 316 315 315 314 314 312 312 316 315 314 314 316 316 310 310 318 318 314 316 317 317 315 317 319 319 316 313 314 317 318 316 317 321 321 312 309 317 327 325 321 312 303 303 302 299 298 298 299 299 299 300 300 301 302
316 316 314 314 313 314 316 315 314 313 313 314 313 314 317 318 318 317 319 327 327 321 320 319 318 319 317 317 317 318 323 320 315 316 315 315 314 313 316 315 313 313 311 313 318 317 314 312 312 316 318 317 316 317 316 313 318 323 317 315 315 314 317 318 317 318 321 318 313 312 316 320 323 320 308 303 306 304 301 300 298 299 299 300 300 300 301 302
317 316 316 315 314 314 315 315 315 314 313 315 314 315 318 318 318 318 324 332 327 319 319 318 315 316 316 316 316 317 318 316 316 316 313 313 313 312 316 316 316 317 310 314 323 316 312 316 316 315 316 316 316 319 316 313 320 320 311 311 315 314 316 317 316 317 315 313 317 318 314 315 321 318 306 302 307 308 305 303 300 299 299 300 300 300 301 302
316 316 316 315 314 315 315 316 317 315 315 317 316 317 319 318 318 320 325 329 325 318 318 317 314 314 314 315 314 313 312 312 315 315 311 313 313 312 315 314 313 315 309 312 322 317 310 312 313 315 318 317 317 316 311 314 319 312 306 310 313 312 313 314 315 317 314 313 320 321 314 316 323 322 311 307 311 311 307 303 300 299 300 300 300 301 301 302
315 315 316 316 315 315 316 316 316 318 318 318 318 318 318 319 320 324 326 328 325 319 314 314 313 313 313 315 314 311 310 311 312 312 311 312 312 311 313 312 310 314 313 312 318 316 308 307 308 312 316 313 312 308 305 310 311 306 310 315 315 315 316 316 316 315 314 318 321 318 315 315 319 323 317 312 314 312 307 304 301 298 299 300 300 301 301 301
314 314 315 316 315 315 317 316 316 319 319 319 320 318 318 321 323 328 328 324 323 319 313 313 312 312 315 318 317 312 309 309 309 312 313 311 311 311 312 313 312 317 319 316 317 313 308 309 310 310 309 307 309 308 304 304 303 308 319 319 317 319 316 317 319 316 317 323 319 311 311 313 316 324 320 314 313 310 306 306 302 299 299 300 300 301 301 301
314 314 315 315 314 315 317 316 316 319 320 321 320 318 320 323 323 329 327 322 323 320 317 316 312 313 316 316 316 312 311 312 309 312 314 312 313 313 314 317 318 322 322 318 318 315 313 314 311 308 308 308 314 315 308 306 305 312 320 318 320 322 317 319 321 317 319 320 312 307 310 312 314 320 318 315 314 308 303 303 301 299 300 300 301 301 300 301
314 314 315 315 315 316 317 316 317 320 321 321 319 317 322 326 326 327 325 324 324 318 315 316 313 314 316 316 315 311 312 314 311 311 312 312 314 313 314 315 315 322 324 317 317 317 318 316 310 310 310 309 315 317 314 314 311 312 316 317 321 322 322 327 322 316 318 316 308 307 311 313 315 315 313 312 310 303 300 301 301 300 301 301 301 301 300 301
315 314 315 315 316 316 316 316 317 321 322 320 318 318 322 326 327 327 325 324 322 316 314 315 313 314 315 317 316 313 314 315 311 312 312 312 314 315 315 313 311 318 322 316 316 318 321 320 314 314 313 311 313 314 317 317 312 312 315 315 319 323 327 329 325 323 323 317 309 307 312 318 319 314 307 303 300 298 299 301 300 300 300 301 301 300 300 301
316 315 315 315 316 318 317 316 318 321 322 319 318 320 324 326 326 327 327 324 322 318 315 313 313 315 315 315 314 312 315 315 311 312 313 313 315 315 316 314 311 316 320 318 318 315 317 322 316 310 308 310 312 310 311 314 313 312 312 313 317 321 323 319 316 317 318 316 313 310 313 318 315 309 300 297 297 296 298 299 299 300 300 300 300 299 300 301
318 316 315 315 316 318 318 317 318 320 321 319 319 321 323 324 325 328 326 323 322 317 313 314 315 317 316 315 313 311 312 314 313 313 313 313 314 314 316 316 312 312 316 319 320 316 316 320 313 307 307 307 309 308 307 311 315 312 311 316 316 314 319 319 311 307 309 315 316 312 315 315 311 309 303 300 301 299 297 297 298 299 300 299 299 299 300 301
320 318 316 315 315 317 318 318 318 320 320 319 320 321 322 323 323 325 323 318 317 314 315 319 318 317 317 316 315 313 312 314 313 313 314 313 314 314 314 316 312 310 313 316 318 319 321 321 312 309 312 307 304 306 305 305 311 315 315 317 313 309 316 321 316 313 313 317 317 313 314 315 314 315 309 303 306 305 299 297 297 298 299 298 299 300 301 301
321 319 317 316 315 315 317 318 319 320 320 320 322 322 322 322 319 319 318 314 313 315 319 323 320 318 318 317 316 313 313 315 313 312 314 313 315 316 314 315 313 310 311 311 314 317 318 320 314 309 312 309 304 309 311 306 306 313 314 312 312 316 318 317 316 319 318 318 320 315 311 313 314 316 314 310 312 310 302 297 297 298 297 298 299 300 301 301
320 318 317 317 315 314 315 319 320 319 319 321 323 322 322 322 318 316 317 315 315 318 320 322 321 319 318 317 318 314 312 314 312 312 315 314 315 314 311 314 314 310 309 309 314 316 314 318 318 309 308 309 308 311 316 312 307 308 309 308 312 317 318 317 316 317 318 319 321 317 314 316 314 314 318 316 311 309 304 300 298 298 298 298 300 301 301 301
319 317 317 317 317 315 314 317 319 318 319 321 323 322 320 320 318 317 318 318 318 318 319 322 322 322 319 317 318 316 313 314 312 312 316 315 314 314 310 313 314 311 308 307 312 315 313 316 319 312 307 310 313 313 314 314 311 310 312 311 312 313 314 316 315 313 317 321 322 320 318 318 315 312 315 314 310 306 304 302 300 298 298 300 300 302 302 302
318 317 317 317 318 316 314 316 318 317 319 320 321 320 318 318 318 317 318 318 319 318 319 323 324 323 321 318 319 317 315 315 313 312 316 314 314 316 311 310 312 311 309 308 312 315 314 316 319 315 311 313 317 313 308 310 312 312 313 313 313 313 314 316 315 312 314 317 319 319 318 317 315 309 309 310 308 304 302 301 300 298 299 300 301 302 302 302
317 316 316 316 317 317 315 317 318 317 319 319 319 318 317 317 318 317 316 316 318 319 318 321 323 322 321 320 320 319 317 318 315 314 317 314 315 317 311 308 309 309 310 312 312 312 313 317 320 318 315 314 312 306 303 306 310 311 312 313 313 313 314 317 317 315 314 313 313 314 317 316 310 303 304 304 302 301 300 300 299 299 301 301 301 302 302 302
316 315 314 315 317 317 317 318 318 317 318 317 317 317 317 317 318 317 317 316 317 319 318 319 320 320 321 320 319 319 318 318 316 316 318 316 315 313 309 308 309 309 312 315 313 311 312 316 318 317 317 313 309 306 303 304 309 312 313 313 312 313 315 316 316 316 316 315 313 313 316 316 308 299 298 298 297 299 300 300 300 299 300 300 300 301 302 302
315 313 313 315 317 317 318 318 317 317 317 315 316 317 315 316 316 317 318 316 317 319 319 320 319 319 321 320 319 319 318 319 318 316 317 318 314 310 307 308 310 311 311 313 313 312 313 317 318 317 319 316 313 312 309 307 310 313 314 312 312 313 314 313 312 313 315 315 315 315 315 316 311 302 299 299 298 298 298 299 300 300 299 299 299 300 302 302
314 313 311 313 315 315 315 316 316 316 316 316 317 317 316 315 315 316 317 317 316 317 319 319 317 317 319 318 318 318 318 320 321 316 316 317 312 307 306 308 310 310 309 309 311 312 314 318 318 317 319 319 319 318 316 313 311 312 313 311 311 312 312 313 313 314 314 313 313 315 314 315 312 306 306 304 301 302 300 298 299 300 300 300 300 301 302 302
314 314 311 310 312 312 312 312 313 314 316 316 316 316 317 316 314 314 316 317 316 315 316 316 315 317 318 317 318 318 317 317 319 318 316 316 313 307 306 308 308 308 309 309 309 311 314 316 315 316 318 318 319 317 314 314 315 313 313 312 312 311 310 313 315 315 314 313 313 313 313 314 313 310 311 309 305 307 304 298 298 300 301 301 301 301 302 301
314 314 311 310 311 310 310 310 311 313 315 316 316 315 316 317 316 314 315 315 316 315 315 315 315 318 318 317 318 319 317 316 317 317 316 315 313 307 305 307 307 308 309 309 309 312 315 315 314 315 315 315 316 314 311 313 316 315 314 313 312 310 309 311 313 314 315 315 314 314 313 314 314 312 313 312 308 307 303 298 299 301 301 301 301 300 301 301
313 312 310 311 312 311 310 310 310 312 314 314 314 314 315 316 315 316 315 313 313 315 316 315 316 317 318 317 318 317 316 317 316 315 315 314 312 310 309 307 306 307 309 309 309 311 313 315 314 314 314 314 314 313 312 312 314 314 315 314 313 310 309 310 311 312 314 315 314 314 314 314 313 312 312 311 307 305 304 302 302 303 301 300 299 300 300 301
309 309 308 309 311 310 310 310 309 311 313 313 312 312 313 315 315 314 314 313 313 314 315 315 315 316 316 316 317 315 314 316 316 314 314 313 313 313 313 311 307 305 308 310 309 308 311 314 313 312 313 314 313 312 311 311 312 312 313 314 313 311 308 309 310 310 311 312 312 313 313 313 312 311 311 308 304 303 303 302 302 302 301 300 299 300 300 300
308 308 308 308 307 307 308 309 310 311 310 310 311 309 310 313 314 312 312 312 312 312 313 314 313 314 315 314 315 314 312 314 315 313 311 312 312 311 311 312 309 305 306 309 308 306 310 313 311 310 313 314 312 311 310 309 310 311 311 312 311 310 309 308 309 309 310 311 310 309 310 311 309 307 306 304 303 302 302 301 301 301 300 300 300 300 300 300
308 308 308 308 307 306 307 308 309 310 309 308 309 309 308 309 311 311 310 310 311 310 311 312 312 311 311 311 311 311 311 312 313 311 310 310 311 310 310 311 310 308 307 307 307 308 309 309 310 311 314 314 312 310 309 307 307 308 310 311 309 309 310 309 309 309 310 310 310 308 309 310 307 303 301 301 300 300 301 301 301 301 301 301 301 301 301 301
307 307 307 308 308 306 306 306 306 308 308 308 307 307 307 308 308 309 309 309 309 310 309 310 310 309 308 309 309 310 310 310 311 311 310 310 309 309 310 310 309 309 308 307 307 308 308 309 311 311 314 313 307 306 307 307 309 311 311 312 311 310 310 309 307 307 308 308 310 309 309 310 308 303 302 302 300 298 300 302 302 302 302 302 302 302 302 302
Wind_Speed
5 4 4 4 4 4 4 3 3 3 3 3 3 3 3 2 2 2 3 3 3 4 4 5 6 7 7 8 8 9 9 9 9 10 10 9 4 4 5 4 3 4 5 5 6 5 4 4 4 4 4 4 5 5 5 5 5 3 2 3 2 2 1 4 6 5 4 1 3 5 7 3 2 5 7 6 5 9 11 10 8 3 1 4 8 12 14 12
6 6 6 5 5 5 5 4 4 4 4 4 4 4 4 3 3 4 4 4 5 5 5 6 7 8 8 9 9 10 9 10 11 11 7 3 5 8 6 4 3 6 7 8 8 6 4 4 3 4 5 4 4 5 4 4 6 3 3 3 1 4 3 4 6 5 3 2 4 6 6 2 4 6 6 4 7 12 12 10 6 2 1 6 10 10 9 7
8 8 7 7 6 6 6 6 5 5 5 5 5 5 5 4 5 5 6 6 6 6 7 7 8 9 9 10 10 10 10 11 11 5 1 7 10 9 5 4 5 7 7 8 7 5 3 2 3 4 4 4 4 4 4 5 4 2 3 2 3 5 3 4 4 3 3 4 6 5 4 5 5 5 4 3 9 9 5 6 5 5 12 13 11 8 6 5
11 10 9 8 8 8 7 7 7 6 6 6 6 6 6 6 5 6 7 7 7 7 8 8 9 9 10 10 10 10 11 11 6 3 8 9 9 6 3 4 7 8 8 8 7 4 2 1 2 3 3 3 4 4 4 5 3 1 3 3 4 3 1 2 2 2 3 4 6 5 5 6 5 4 4 2 5 5 2 3 5 10 16 12 8 6 5 5
12 12 11 10 10 9 9 9 9 8 8 8 8 7 7 7 7 7 8 8 8 9 9 9 9 10 11 10 10 10 9 7 1 7 8 7 5 3 1 5 8 9 9 8 6 3 2 1 1 2 3 2 4 4 2 4 3 1 1 3 4 4 1 1 0 2 3 4 6 6 5 6 6 6 5 3 3 3 4 8 10 12 10 6 5 4 4 5
14 14 13 12 12 11 11 11 10 10 9 9 9 9 9 9 8 9 9 10 10 10 10 10 10 10 11 10 10 9 6 2 2 5 3 4 5 6 7 9 10 10 9 7 6 3 2 1 0 1 3 3 3 3 1 2 2 0 1 1 2 4 3 3 3 4 5 6 7 8 8 8 8 6 4 2 3 6 8 10 9 6 3 1 1 1 2 5
15 15 14 14 13 13 12 12 12 11 11 11 10 10 10 10 10 10 11 11 11 11 11 11 11 10 11 11 10 9 7 6 6 6 9 9 9 10 12 13 12 11 9 7 5 2 2 2 1 2 3 2 1 2 2 1 2 2 1 1 1 3 4 5 6 9 11 11 11 10 10 9 7 5 3 4 2 3 3 2 1 1 2 2 2 2 5 6
17 16 16 15 14 14 14 14 13 13 12 12 12 12 11 11 11 11 12 12 12 12 12 12 11 11 11 11 10 9 11 11 9 10 12 12 12 13 14 14 13 11 8 6 4 3 2 2 3 2 2 1 2 2 2 1 1 3 1 2 2 4 7 9 11 14 14 13 11 9 10 9 5 4 2 5 3 1 2 4 3 4 3 2 3 6 6 6
18 18 17 16 16 15 15 15 14 14 14 13 13 13 13 13 12 12 12 13 13 12 12 12 12 12 11 11 10 9 11 10 8 9 10 11 11 12 12 12 11 10 8 6 4 3 3 3 4 3 1 2 3 3 3 2 1 2 2 3 4 7 11 12 13 12 11 11 9 7 8 5 0 2 4 6 3 4 4 5 4 3 0 3 5 6 6 6
19 19 18 17 17 16 16 16 16 15 15 14 14 14 14 14 13 13 13 13 13 13 13 12 12 12 12 12 8 5 8 9 6 6 7 7 8 8 9 9 9 9 7 6 4 3 4 3 3 3 2 2 4 3 4 2 1 1 1 5 7 10 12 12 12 13 11 11 8 6 5 2 3 3 3 4 4 5 4 4 3 0 2 4 4 5 6 7
20 19 18 18 18 17 17 17 16 16 15 15 15 15 14 14 13 13 13 13 13 13 13 13 13 13 12 11 8 7 9 9 6 6 6 6 7 7 7 7 8 8 7 7 5 4 4 4 3 3 2 2 3 2 3 2 0 1 3 6 9 11 12 10 9 9 5 4 3 4 4 1 3 3 3 5 6 5 2 2 1 1 2 4 3 4 5 6
20 19 18 18 18 17 17 17 16 16 15 15 15 14 14 14 13 13 13 13 14 14 14 14 13 12 11 12 15 14 12 11 10 9 9 8 9 9 9 10 9 8 7 6 6 5 4 4 4 3 2 4 3 1 2 2 0 1 4 4 8 9 8 6 5 3 1 1 1 0 2 4 3 4 6 5 3 2 1 2 2 3 4 4 3 4 4 6
20 19 18 18 18 17 17 16 16 15 15 15 14 14 13 13 13 13 14 14 14 14 13 13 12 11 10 11 15 14 12 13 13 14 14 13 13 13 12 11 10 9 8 7 7 6 4 4 4 4 4 4 3 2 2 2 1 2 3 2 5 7 5 4 5 3 1 1 0 1 2 4 1 4 6 6 1 3 1 5 5 5 5 4 3 3 4 5
20 19 19 18 17 17 16 16 15 15 14 14 14 13 13 14 14 14 14 14 14 13 12 12 11 11 9 11 14 13 13 13 13 14 15 15 14 12 11 9 9 9 8 8 7 6 5 5 5 5 5 4 4 4 2 3 3 1 1 2 2 2 4 5 5 4 2 1 1 4 1 4 2 2 8 7 1 3 2 7 7 6 6 4 4 3 3 4
20 19 19 19 18 17 16 15 15 14 14 14 14 14 14 14 14 14 14 13 13 12 12 11 10 9 8 11 13 13 13 14 15 15 14 14 12 10 9 9 9 9 9 8 7 6 5 6 6 5 5 5 5 5 3 4 3 2 1 3 2 1 5 6 5 4 2 2 3 5 2 4 3 3 9 7 2 1 5 8 7 6 6 5 4 4 3 4
20 20 20 19 18 17 16 15 15 14 14 14 14 14 14 14 14 14 14 13 12 12 11 10 10 8 6 9 12 11 12 12 13 14 14 14 12 10 9 9 9 9 8 7 5 5 7 7 6 4 5 5 5 4 3 3 4 3 1 3 2 1 3 5 4 4 3 1 3 3 1 4 2 4 10 8 4 3 8 9 7 7 6 5 4 4 4 5
21 20 20 19 18 18 16 16 16 15 15 15 15 15 14 14 14 14 13 12 12 11 10 8 7 6 8 10 11 11 12 11 12 12 12 12 12 11 10 10 10 9 7 6 7 7 8 7 6 4 3 3 3 4 3 2 4 3 1 2 3 2 2 3 3 4 6 2 2 4 0 6 3 7 12 9 5 4 9 9 7 7 6 5 5 5 6 7
21 21 20 20 19 18 17 17 16 16 16 16 15 15 14 14 14 13 13 12 11 8 8 9 7 2 8 13 12 10 9 10 12 12 11 12 12 11 11 10 9 9 8 8 7 8 7 5 4 2 3 2 2 5 3 5 4 3 2 2 2 2 2 3 3 2 4 3 2 3 2 9 6 7 13 10 6 5 10 10 7 7 6 6 6 7 9 9
22 21 21 20 19 19 18 18 17 17 17 16 15 14 13 12 12 13 13 13 11 6 4 8 10 4 3 7 9 9 8 8 10 11 12 12 12 11 11 9 9 11 11 7 5 7 7 4 4 1 1 3 6 7 8 7 6 5 5 4 3 3 3 4 4 3 1 2 4 5 5 10 8 4 9 8 7 8 10 9 8 8 7 8 9 10 12 13
22 22 21 21 20 20 19 19 18 18 17 15 14 12 11 9 6 8 12 15 16 14 11 11 12 11 7 5 6 7 7 7 8 10 12 11 12 12 12 11 10 8 7 5 4 5 6 4 3 5 7 8 10 9 6 4 6 5 5 4 4 4 4 4 3 4 0 2 4 5 5 9 7 3 6 4 5 9 9 8 8 9 9 11 12 14 16 17
23 22 22 21 21 20 20 19 18 18 17 15 14 11 9 7 4 3 7 11 15 17 18 17 16 17 15 11 9 7 7 8 8 10 11 12 13 12 11 11 7 3 2 4 5 3 4 5 8 9 7 8 7 7 5 4 5 4 4 3 3 4 5 4 2 3 1 2 3 1 2 8 4 2 5 4 4 6 5 6 7 8 10 12 14 16 18 20
23 23 22 21 21 20 19 19 18 17 16 15 16 14 11 10 8 7 6 7 13 16 17 18 20 22 21 18 14 11 9 8 9 13 13 16 16 12 11 10 5 3 2 4 6 2 2 4 11 9 6 6 3 5 6 4 3 3 3 3 3 3 3 4 2 3 2 2 3 2 2 7 2 2 4 5 5 5 4 5 6 8 10 11 14 17 19 21
22 22 21 21 21 20 19 18 17 17 17 16 16 16 13 11 9 9 7 6 11 16 18 20 23 25 24 22 20 18 14 11 12 16 17 19 19 15 13 10 4 4 4 5 6 5 3 6 10 8 10 8 3 4 6 3 2 3 3 3 4 2 1 3 3 3 2 0 2 0 3 4 1 2 3 5 6 7 6 6 8 9 10 12 15 18 21 23
21 20 21 21 21 21 20 17 18 19 18 17 16 15 13 10 8 8 7 5 7 11 16 20 21 24 25 22 20 20 21 17 14 15 20 23 20 13 11 10 6 4 5 8 8 6 5 5 3 8 8 7 5 4 6 5 2 3 5 6 4 4 5 5 2 2 2 3 0 1 3 5 1 2 0 3 4 5 5 6 8 9 11 13 16 19 21 24
23 23 23 21 21 20 18 17 20 20 18 17 16 14 11 9 6 4 3 3 5 6 10 15 16 19 22 20 18 19 18 17 15 15 20 25 22 12 7 9 7 4 7 6 5 5 6 4 6 7 4 5 7 4 6 7 3 3 5 10 9 8 7 4 1 2 2 3 2 2 1 4 2 2 3 3 2 2 2 4 7 9 12 14 16 18 21 23
24 23 23 22 22 19 16 17 20 20 17 16 14 13 11 8 5 2 1 2 4 4 4 8 10 10 13 16 17 15 7 9 15 18 19 24 24 13 6 6 4 3 6 6 3 3 3 2 5 6 5 6 6 4 6 7 5 2 5 9 10 7 5 5 4 3 1 3 2 1 3 3 4 3 4 4 3 2 2 3 6 9 12 15 16 18 20 22
23 23 23 23 23 22 20 19 19 18 16 14 13 13 11 10 7 2 3 3 5 5 6 7 8 8 10 12 19 15 2 4 10 14 20 23 21 14 7 4 3 2 5 5 1 2 3 3 3 5 6 5 5 5 6 8 7 3 3 5 7 7 7 6 6 4 2 2 2 2 2 2 3 3 2 5 5 2 3 4 6 11 14 16 17 19 21 23
24 24 24 24 25 26 24 19 16 17 15 11 12 14 13 12 9 4 4 2 3 5 5 5 7 9 11 16 20 12 3 6 7 9 19 22 19 12 6 7 6 4 5 6 4 3 3 6 6 7 5 4 5 4 8 11 5 4 1 6 6 6 5 5 5 3 1 1 3 4 1 1 4 3 1 2 3 4 6 7 8 14 19 19 20 21 22 24
27 26 26 25 25 26 25 20 16 15 13 11 13 16 15 15 10 5 3 3 2 4 3 6 9 8 12 16 13 5 4 4 2 8 16 18 16 8 3 7 8 6 3 3 4 2 1 3 6 8 5 5 4 1 7 10 4 4 7 7 6 6 5 4 4 3 3 1 4 5 3 3 4 4 1 0 3 6 7 6 9 17 21 22 23 24 24 25
28 28 28 27 28 29 27 25 20 16 14 14 16 19 19 15 7 4 3 4 1 3 4 7 6 7 13 11 3 1 3 1 4 12 11 9 11 6 5 6 6 6 1 4 0 2 1 1 1 4 4 5 5 3 1 4 6 9 7 6 6 6 4 3 2 3 3 2 5 5 4 3 3 5 3 4 4 5 7 6 7 15 21 23 24 25 26 26
28 29 29 31 33 32 31 31 25 19 18 18 20 24 20 9 4 3 7 2 2 2 5 4 2 7 12 7 2 3 2 2 6 11 6 4 6 5 6 6 3 4 2 3 2 3 2 1 1 2 4 7 8 5 5 4 5 7 4 4 5 3 3 3 4 3 1 5 5 3 2 2 4 5 4 4 4 4 9 10 11 15 22 27 27 26 26 25
27 28 30 34 36 34 34 33 25 22 22 22 26 26 15 3 1 7 5 2 1 3 4 3 2 5 7 3 3 4 3 2 4 6 4 3 4 4 4 4 4 3 1 4 2 3 1 3 2 2 5 7 6 4 4 3 1 3 4 6 4 1 2 1 2 0 3 5 3 2 1 2 5 6 6 5 5 5 7 10 17 24 28 30 30 28 27 26
28 29 31 36 38 37 37 30 24 26 25 26 28 19 7 2 7 9 7 2 2 2 3 3 2 4 7 4 2 3 3 2 4 3 2 3 3 4 3 2 5 4 1 4 3 1 2 3 1 3 3 8 9 5 3 1 2 4 4 5 4 2 2 2 3 1 3 4 2 2 1 1 4 6 5 5 4 5 5 8 17 27 31 33 32 30 28 27
31 30 32 38 40 40 37 30 27 28 27 30 25 9 3 7 8 6 8 6 1 2 3 4 5 5 6 4 4 5 3 2 5 4 2 4 4 5 5 4 4 3 3 3 2 4 3 3 5 5 2 9 10 6 6 6 5 4 3 4 4 4 4 3 3 3 3 2 2 3 1 4 4 2 2 1 1 2 4 7 14 22 28 31 31 29 28 28
32 31 34 39 42 43 38 34 31 29 31 32 18 5 7 11 7 4 7 6 2 2 2 3 6 5 4 2 3 5 4 3 5 5 3 5 5 5 5 6 7 4 5 4 2 3 2 4 5 1 1 8 8 4 6 7 3 2 2 4 2 3 4 2 3 5 3 1 2 2 3 4 4 1 1 1 1 1 4 8 13 20 25 27 28 30 30 29
32 33 36 40 46 47 41 38 35 32 35 29 11 7 11 9 4 4 4 5 5 6 6 3 3 4 4 2 2 5 3 1 5 4 3 3 3 5 4 5 9 9 6 6 3 2 2 4 4 2 2 3 4 4 4 3 3 2 2 3 4 3 6 4 1 1 3 1 3 2 3 3 1 1 2 2 1 2 4 7 14 21 24 26 29 32 32 31
37 37 39 45 50 48 45 43 37 38 39 24 8 9 9 5 5 5 3 5 7 10 9 4 4 5 5 4 4 7 4 2 4 4 3 2 3 6 5 5 9 14 12 6 2 3 4 1 3 1 1 1 2 6 6 4 4 5 3 5 3 1 4 4 1 2 3 3 4 1 4 3 2 2 2 2 2 5 5 7 11 18 23 26 31 34 34 32
44 42 42 47 49 48 49 46 41 43 36 15 8 12 6 3 6 6 6 6 7 8 7 6 6 5 6 6 4 6 6 4 5 4 4 3 4 7 9 5 8 17 20 10 1 2 4 1 4 0 2 1 2 5 5 4 3 4 4 3 3 3 1 2 2 1 1 3 4 2 3 3 4 4 3 5 9 9 7 6 8 16 24 29 33 36 35 33
43 36 33 43 48 48 50 47 44 43 25 6 9 12 3 2 4 6 11 8 4 5 5 4 4 2 4 6 3 5 6 6 7 5 4 4 3 6 10 6 5 14 21 13 4 2 3 2 3 1 1 1 1 2 4 2 1 3 2 2 2 2 3 2 2 3 3 2 3 3 2 3 5 6 8 12 14 11 10 8 11 19 28 33 36 39 38 36
41 24 17 33 43 44 48 46 39 29 12 4 10 8 1 3 3 8 15 10 2 3 4 2 3 3 3 4 2 4 6 6 8 6 4 5 4 4 7 6 4 6 11 9 4 1 3 3 3 1 1 2 2 3 6 7 5 3 3 4 1 1 2 1 1 2 3 3 2 3 4 4 4 3 8 11 10 11 14 13 14 21 30 36 39 41 40 38
40 17 10 25 34 40 46 38 23 12 5 6 9 6 3 3 3 8 15 13 6 3 3 3 4 4 3 3 3 4 5 5 6 5 3 5 4 2 4 4 6 8 6 4 4 4 3 3 4 2 2 3 5 4 3 5 6 5 5 7 7 5 4 2 4 1 2 2 4 2 6 6 3 2 4 5 4 8 14 13 15 24 33 39 41 42 41 39
31 10 9 22 29 40 42 23 10 9 7 7 7 7 7 4 4 7 11 12 8 2 3 3 2 3 3 3 3 4 5 4 5 5 4 5 4 2 0 1 8 14 10 3 4 3 3 3 4 3 3 4 4 3 1 2 3 3 3 4 6 5 5 5 6 3 2 1 2 2 4 6 3 2 2 4 4 8 14 16 18 27 37 41 41 41 40 37
21 9 11 20 30 43 35 11 7 10 6 3 4 7 9 6 5 8 8 8 6 3 3 3 3 5 4 3 4 5 5 4 5 6 3 3 3 1 1 4 9 12 6 1 1 3 2 3 3 1 2 2 3 3 1 0 2 2 3 3 5 4 4 4 5 3 3 4 3 2 4 5 2 1 2 4 5 6 16 22 22 26 32 35 36 38 38 36
14 11 13 22 35 41 25 6 9 13 7 4 4 5 8 5 6 9 8 8 7 4 4 3 3 5 4 3 5 6 7 5 5 6 4 3 4 2 4 8 11 7 2 1 2 5 5 3 4 3 1 3 3 2 1 1 1 4 2 2 5 5 4 2 1 3 1 5 7 5 8 5 1 1 3 2 2 5 13 21 21 21 23 27 31 35 37 36
10 7 10 22 36 35 16 3 6 10 9 9 7 6 7 4 6 10 10 10 9 6 4 3 4 5 3 3 3 4 7 5 3 4 3 2 3 3 5 8 10 5 2 3 2 3 4 2 4 7 7 7 5 4 5 3 2 2 1 3 6 8 9 5 2 3 5 4 8 7 9 4 1 1 2 1 2 4 8 14 18 19 20 24 31 36 38 38
9 4 4 11 21 21 11 4 4 5 8 11 7 7 9 6 3 6 8 9 9 8 5 2 4 5 3 4 5 4 6 4 1 3 4 3 2 1 4 6 7 6 5 6 5 3 1 2 4 7 7 6 4 4 3 5 5 4 5 7 9 9 11 8 3 5 5 3 5 9 7 5 5 2 3 5 4 5 7 12 18 22 22 26 32 37 39 38
4 3 5 6 6 7 6 5 5 2 6 10 6 4 10 9 2 3 6 6 7 9 4 2 4 6 4 7 6 4 5 3 2 3 4 3 3 1 3 5 6 6 6 5 5 5 2 2 3 5 7 3 2 1 1 3 5 7 7 9 9 8 10 10 8 8 6 5 9 9 6 6 11 7 7 7 6 6 8 14 21 26 27 28 30 34 36 35
4 2 6 9 5 3 5 7 7 4 4 9 5 1 7 10 6 5 5 2 5 9 5 1 4 7 7 8 6 3 5 4 3 4 3 3 3 2 2 3 4 4 5 4 4 4 3 2 2 1 6 5 1 2 1 1 2 4 6 9 10 10 12 13 14 11 7 7 14 8 7 11 12 7 9 10 11 13 15 19 23 24 25 26 27 30 35 35
5 2 4 8 4 3 6 9 10 6 4 5 4 2 6 11 9 6 3 3 2 4 3 3 5 6 6 6 6 5 6 5 3 4 3 2 3 2 2 2 2 3 4 4 3 3 3 2 2 4 5 8 4 3 3 3 2 3 5 9 11 11 11 13 15 12 10 13 12 3 6 12 7 6 10 14 17 17 15 17 19 19 21 23 25 28 32 33
7 4 5 7 3 3 8 10 10 6 3 3 3 3 5 8 8 4 2 4 4 1 2 5 5 4 5 4 5 7 6 5 4 3 3 3 2 1 1 2 2 2 3 3 2 3 3 0 1 4 3 7 5 4 4 4 5 5 8 13 12 6 7 11 14 10 9 13 9 3 5 10 5 7 11 13 15 14 12 14 16 16 17 19 21 25 27 29
9 7 7 8 3 2 6 6 6 5 2 3 4 4 4 7 7 4 2 2 6 3 4 5 5 5 3 3 6 7 5 6 5 5 9 7 5 6 5 5 6 4 2 4 4 4 4 1 2 3 3 5 2 4 4 3 2 4 13 19 12 7 8 11 10 9 11 13 11 8 9 10 5 7 7 8 11 13 14 15 14 14 16 16 18 20 22 25
11 9 9 8 3 2 4 4 4 4 3 4 5 4 5 6 7 7 3 4 7 8 7 6 6 5 3 6 10 11 10 9 7 7 12 10 7 10 10 10 12 9 5 5 3 2 5 4 2 3 4 3 2 2 4 4 1 6 13 15 13 14 14 9 5 9 13 12 10 10 10 6 4 7 7 6 8 10 13 15 14 14 16 17 19 19 18 20
Wind_Direction
233 230 230 232 231 231 228 224 219 221 221 216 214 216 220 226 242 251 255 271 283 290 300 302 306 307 308 311 313 317 319 322 322 323 324 322 315 155 143 123 89 30 7 358 351 342 341 349 350 1 9 17 31 44 55 45 33 31 101 76 55 160 172 172 184 187 158 270 289 331 351 20 337 336 342 329 305 312 315 319 329 322 314 326 311 308 312 315
242 241 239 241 241 241 240 237 231 232 236 234 232 233 238 245 256 264 268 278 285 288 293 296 299 301 305 310 314 319 320 322 320 319 326 352 126 134 126 101 38 357 345 337 336 333 332 338 344 6 11 26 41 43 51 38 37 58 110 70 197 200 209 185 181 188 177 305 293 316 335 325 312 318 340 339 303 320 324 328 358 55 2 331 321 322 325 324
252 250 248 249 250 250 250 249 247 246 249 249 250 249 252 258 264 271 275 277 282 286 289 293 295 299 304 309 315 320 322 324 321 322 88 122 128 127 109 60 3 342 333 332 331 325 317 322 346 8 15 43 50 44 52 40 36 73 95 72 236 218 224 212 201 214 232 291 297 314 315 298 312 312 328 316 301 318 323 323 356 341 326 332 334 339 346 350
257 257 257 256 256 257 257 258 259 258 259 259 260 260 259 262 265 269 273 275 280 282 284 288 291 297 303 308 315 319 326 327 322 138 138 135 135 136 105 16 348 338 333 335 333 320 289 280 344 9 29 54 44 42 51 35 36 131 108 140 204 187 211 219 201 274 271 285 292 301 302 305 326 325 308 305 310 325 6 341 337 319 321 329 331 342 2 12
258 258 258 259 259 259 260 260 260 259 260 261 261 261 262 263 264 267 271 273 276 278 281 285 290 297 301 306 311 317 336 346 87 135 143 152 164 189 256 318 326 330 331 335 332 316 249 238 340 31 49 58 40 44 44 37 65 131 125 164 167 152 202 290 114 325 309 297 294 292 299 307 317 318 300 277 279 296 314 313 309 308 310 322 329 347 14 17
258 258 258 258 258 258 258 258 258 257 256 258 259 260 261 263 265 267 270 272 274 278 282 285 290 295 297 302 305 310 327 334 171 153 184 217 234 255 279 297 308 317 320 325 328 313 235 225 72 55 59 59 52 62 76 57 76 64 274 189 173 189 235 295 302 310 309 302 295 290 295 300 309 320 316 306 278 286 296 297 298 301 300 333 349 355 20 20
257 257 256 256 255 255 255 254 254 254 254 255 256 259 261 264 266 267 269 272 275 278 281 285 288 291 294 296 299 301 291 273 255 251 262 260 259 268 279 287 292 299 302 307 313 292 231 223 168 110 81 61 93 111 102 90 112 119 266 294 298 242 261 297 299 301 300 294 294 295 290 290 303 310 335 26 26 307 291 276 278 117 106 119 134 47 34 24
256 255 254 254 254 254 253 253 254 253 254 255 256 259 260 263 264 266 269 271 275 277 279 281 284 285 289 292 295 296 283 279 276 264 261 257 258 264 270 276 281 287 286 284 295 274 241 228 202 146 94 70 171 150 126 123 115 128 229 300 321 279 289 300 298 297 297 295 297 293 278 281 295 285 351 49 80 123 147 143 116 115 108 82 45 33 32 22
255 253 252 253 253 253 253 253 254 254 255 256 257 259 261 263 264 266 268 271 273 274 277 279 281 284 285 287 292 294 285 286 282 263 257 252 252 255 260 268 271 275 271 262 271 257 234 215 208 202 213 194 159 145 133 139 285 180 206 299 291 291 302 303 297 295 294 293 293 281 279 296 336 145 60 57 102 140 149 150 128 128 305 9 15 12 9 5
253 252 251 252 252 252 252 252 253 253 255 256 258 259 261 262 264 266 268 271 272 274 277 279 280 283 283 284 281 275 281 282 274 259 250 246 245 248 253 260 265 266 263 253 253 248 226 215 205 191 205 180 141 132 140 134 320 207 319 307 287 295 305 301 292 291 289 286 281 254 272 323 131 144 80 57 98 139 153 139 131 182 341 21 15 1 358 352
251 251 250 250 250 250 250 250 251 252 253 254 256 258 260 263 265 267 268 270 273 275 278 278 281 281 281 279 251 237 272 275 262 254 246 247 246 245 249 255 263 261 255 248 242 232 218 214 191 174 198 167 138 141 173 164 36 349 340 308 298 313 312 302 294 294 294 288 283 230 250 24 104 132 103 81 98 139 182 127 121 33 41 48 30 9 360 348
250 249 249 248 248 248 247 248 248 249 250 252 254 257 259 263 265 267 269 271 273 275 276 277 278 275 274 270 253 252 269 266 259 256 250 251 249 251 259 262 263 258 251 242 226 216 207 203 196 206 206 155 145 109 160 151 92 354 17 321 309 339 333 323 342 338 29 359 352 159 290 354 52 114 93 63 95 170 207 124 111 85 80 67 49 18 4 356
250 249 248 248 247 246 245 245 246 247 248 250 252 256 259 263 265 267 269 270 272 272 273 273 272 271 267 264 263 264 265 260 259 259 255 256 257 259 262 260 254 246 236 224 214 210 206 212 216 216 191 159 161 148 133 98 54 321 37 29 322 350 336 337 14 347 2 348 278 93 306 309 355 107 69 38 187 220 95 103 102 95 94 76 62 22 9 2
248 248 247 246 245 244 242 241 242 244 246 250 252 257 260 263 264 266 267 268 268 267 268 268 268 266 257 258 268 267 260 258 256 255 256 257 258 259 254 247 238 229 223 220 221 225 225 223 217 201 177 159 146 135 92 28 38 333 17 31 360 360 284 305 356 340 30 43 193 134 223 272 205 83 33 34 188 225 93 95 94 90 88 75 68 39 10 8
244 245 244 244 242 240 239 238 239 242 246 250 254 258 260 262 263 263 263 264 264 264 264 265 264 261 258 262 265 263 259 256 253 252 253 253 253 249 236 227 223 219 223 227 231 232 220 203 194 171 147 144 129 110 26 354 19 24 354 310 342 138 271 311 355 14 70 52 50 119 211 282 180 90 26 45 104 136 95 93 88 84 82 76 63 51 35 35
239 240 240 240 239 237 237 236 239 242 247 251 254 257 258 260 260 260 261 263 263 264 263 262 258 249 255 266 260 258 256 251 251 250 248 248 244 234 223 219 219 223 229 228 220 202 186 176 162 135 132 138 122 97 44 1 340 1 91 248 272 191 275 324 354 16 35 94 30 65 211 291 158 77 29 58 88 68 94 92 86 83 75 76 66 65 72 75
236 235 235 235 235 236 236 236 240 243 246 249 251 253 255 256 258 260 260 260 261 259 259 255 250 248 252 259 255 252 251 246 246 244 240 239 232 226 221 218 217 217 211 192 180 170 169 161 145 139 109 100 105 98 69 324 286 313 30 234 247 214 225 308 305 351 16 84 38 26 77 264 227 65 32 54 79 66 94 92 87 85 74 76 73 80 90 98
236 233 232 232 234 236 237 239 240 242 244 245 247 249 250 253 255 258 258 257 254 256 260 236 216 262 259 244 241 245 247 241 238 235 231 226 221 219 215 212 208 195 171 158 167 164 162 143 124 129 36 47 116 116 159 227 212 193 173 194 251 243 223 262 260 294 357 23 352 344 295 269 263 55 34 44 70 76 94 95 95 94 88 91 85 88 95 100
238 235 232 231 233 235 237 239 239 240 241 240 242 244 247 252 255 257 255 246 232 220 244 217 195 190 236 226 230 241 246 235 227 225 221 216 210 205 199 194 188 176 155 145 170 164 154 111 93 157 209 188 190 176 197 205 167 166 170 154 180 223 244 238 238 258 314 17 296 273 259 270 275 17 28 39 69 88 100 104 104 102 102 102 99 100 101 102
238 237 234 232 231 232 234 235 235 236 238 237 237 237 241 243 251 261 247 238 236 234 240 231 215 219 229 241 241 234 228 221 218 215 210 207 199 189 179 170 164 165 157 150 172 165 153 141 169 216 209 196 202 195 185 153 128 129 130 138 179 210 259 243 234 289 357 150 262 253 247 267 275 344 8 26 77 84 92 101 102 106 110 110 111 110 108 105
233 234 234 233 230 229 229 229 231 232 233 233 229 226 225 214 209 258 249 248 252 248 246 246 240 237 240 248 247 232 215 209 208 203 200 197 187 178 173 163 145 156 192 132 122 131 139 169 219 227 202 187 194 177 149 121 118 113 136 176 222 212 250 250 223 308 7 171 259 9 286 270 265 15 9 31 73 64 72 97 101 110 116 116 116 112 109 107
229 230 230 231 229 226 226 225 226 228 228 227 223 221 221 220 228 252 269 276 268 257 249 244 241 241 241 240 237 228 210 202 204 198 194 187 184 184 175 162 149 164 171 117 108 102 139 214 237 223 148 122 107 138 156 167 150 126 130 163 243 223 254 280 282 331 21 177 251 19 303 268 251 67 35 52 74 75 95 123 122 127 127 124 120 114 114 113
229 228 227 226 225 222 222 222 222 224 223 222 223 222 224 230 238 257 270 279 275 263 249 242 240 240 239 235 233 225 211 212 214 203 198 190 186 190 176 160 150 144 154 176 163 154 182 242 242 192 141 126 90 113 133 134 161 168 144 166 235 216 197 271 275 311 356 123 239 301 300 276 154 95 55 70 91 94 105 131 137 140 137 129 125 121 120 119
226 226 226 221 219 217 217 217 219 224 222 220 223 221 223 232 239 265 273 268 279 263 248 244 241 239 237 234 231 223 218 222 221 207 204 196 183 182 183 167 140 141 186 199 183 182 217 245 188 142 146 157 144 128 140 150 215 228 196 201 218 200 206 229 263 300 338 8 267 152 319 301 207 180 121 100 111 97 103 133 137 143 142 134 131 128 125 122
221 221 221 214 213 213 211 214 219 223 222 219 220 215 214 222 229 262 281 285 284 264 248 238 232 236 233 229 226 216 216 225 224 214 206 199 188 173 174 172 159 187 199 177 170 216 250 232 144 119 120 157 150 170 186 172 193 271 225 211 212 206 209 214 78 32 21 336 287 155 245 293 294 228 201 172 140 109 121 146 147 150 147 143 139 134 130 126
218 215 214 208 208 202 200 217 223 223 222 220 215 204 204 202 195 225 68 14 283 237 205 206 206 217 215 213 204 190 206 235 221 215 203 198 196 182 159 161 154 202 178 143 154 225 241 196 147 136 138 150 162 214 218 167 144 272 243 207 202 191 175 164 142 121 143 246 279 112 176 244 311 285 198 169 154 167 182 172 172 166 157 154 149 141 137 132
216 213 211 208 204 194 196 213 222 218 216 219 208 192 192 180 162 133 68 355 274 188 150 167 172 181 192 188 176 167 184 202 186 201 194 191 195 189 185 173 129 189 157 129 208 242 172 142 118 139 139 148 181 225 217 158 138 234 252 158 161 165 172 172 159 168 221 250 315 358 146 197 288 276 202 158 152 183 205 196 196 182 169 164 157 149 144 138
220 216 212 209 204 199 201 209 216 212 209 212 196 185 179 169 163 127 87 307 262 135 132 161 157 168 171 165 167 161 133 142 143 188 185 182 188 186 203 200 167 173 162 153 214 266 145 166 181 164 146 180 204 219 187 159 153 238 171 109 131 148 156 148 141 170 302 343 286 302 78 212 262 268 339 137 184 228 213 200 204 192 180 172 166 158 151 145
224 220 215 210 206 204 204 208 210 204 201 194 181 177 167 159 154 102 86 240 200 108 124 155 148 154 149 153 172 164 115 125 113 169 171 176 186 181 194 197 164 143 146 165 211 257 97 182 190 158 155 202 210 273 180 169 177 178 127 92 81 75 78 91 111 113 46 12 245 246 194 207 269 274 305 91 245 236 208 199 206 195 186 178 172 164 157 152
223 221 215 208 205 203 205 209 204 191 183 175 171 167 157 150 134 107 208 232 161 98 121 150 157 153 142 142 188 204 121 72 108 141 153 167 180 168 126 151 136 122 69 3 290 245 13 70 161 154 171 175 133 56 80 140 140 139 116 76 64 46 47 55 61 87 62 280 250 241 215 208 269 271 219 197 233 201 169 180 204 199 194 186 178 171 163 158
219 218 213 208 207 203 202 206 200 182 172 167 165 160 152 139 91 167 216 236 74 113 116 137 166 149 151 148 175 175 106 52 137 141 142 149 160 145 122 133 111 87 15 331 300 306 355 68 263 194 162 129 103 62 37 66 124 124 92 96 95 16 22 31 2 49 122 250 257 281 290 218 228 260 247 226 244 191 169 179 185 194 197 191 183 176 168 163
218 214 210 209 209 205 205 208 197 178 170 165 164 160 150 125 213 211 224 46 94 196 146 158 194 162 166 129 105 157 118 106 165 146 140 146 155 169 165 171 157 94 320 235 227 333 291 229 250 154 169 155 119 78 50 31 60 95 91 120 119 7 30 359 294 207 223 243 269 301 274 217 231 251 251 232 234 217 197 190 183 185 191 190 184 179 173 168
216 212 209 207 208 207 209 210 193 176 171 166 166 162 138 177 215 215 216 206 216 195 121 126 120 135 153 132 125 171 129 157 184 155 135 126 150 207 247 191 154 124 189 194 175 213 268 285 193 136 200 191 166 141 140 187 185 161 150 143 143 126 121 240 257 262 261 256 301 295 223 220 260 267 249 215 211 213 206 198 190 187 188 187 184 179 176 173
214 211 209 206 207 208 209 208 190 177 172 167 167 158 134 211 218 192 194 210 212 66 80 106 101 112 147 167 210 180 141 190 175 140 118 122 145 212 235 220 182 114 102 143 167 179 203 282 200 171 190 186 180 174 155 145 152 180 171 140 150 156 161 210 216 206 243 258 302 304 229 190 201 249 268 223 276 243 216 206 197 193 191 188 184 182 181 177
214 213 210 206 206 205 207 205 191 181 176 168 165 169 190 215 225 161 183 195 145 86 65 87 103 120 177 229 245 201 187 210 166 133 152 167 176 199 195 201 198 158 134 164 208 166 173 265 243 225 111 165 176 175 128 115 131 201 129 115 169 189 152 150 186 171 171 265 279 242 228 222 192 203 316 31 52 234 226 215 201 199 195 191 190 189 186 182
215 214 211 209 207 203 204 204 193 189 186 172 165 207 204 218 209 162 178 162 153 144 116 94 99 125 196 222 233 224 222 168 153 153 189 198 218 208 192 205 196 184 174 168 183 156 141 277 283 27 51 151 169 163 123 120 163 153 133 177 222 187 115 110 208 82 80 253 256 201 232 285 298 262 322 53 95 209 215 216 206 201 196 194 196 194 189 186
213 212 211 212 208 203 202 202 198 199 195 181 182 209 206 226 187 164 170 135 138 141 136 181 191 156 189 201 197 204 196 145 160 173 191 201 230 195 191 235 199 192 201 187 191 194 149 254 288 116 140 273 135 120 79 50 117 126 181 205 195 128 90 105 202 13 49 249 269 220 223 244 180 237 312 56 235 228 205 204 203 199 197 198 199 196 192 189
215 209 212 215 211 205 201 200 200 203 199 187 208 213 202 210 181 151 151 142 128 136 152 206 197 170 186 190 191 181 170 178 174 173 183 197 245 187 172 215 200 196 205 195 195 234 146 174 284 251 161 231 92 114 84 26 70 123 182 180 115 142 152 103 164 202 198 243 282 281 244 231 195 204 205 198 218 214 193 189 195 195 197 199 200 198 194 192
214 204 212 217 213 206 203 202 202 202 199 189 212 214 187 162 193 163 158 152 120 144 174 204 184 162 177 174 162 155 171 183 166 169 185 183 235 191 171 192 199 202 205 188 170 227 138 166 250 289 209 181 56 142 171 196 42 67 102 116 76 147 169 154 159 170 183 221 278 290 272 238 223 202 181 196 207 192 174 185 200 199 196 197 198 197 195 194
209 199 217 217 211 207 205 205 203 199 200 215 207 211 140 131 193 182 174 168 127 156 187 199 166 157 161 169 163 156 176 181 165 176 203 187 206 206 191 193 164 185 196 182 180 187 125 176 213 286 314 163 177 214 191 181 169 123 134 160 178 121 123 189 210 122 139 179 212 283 282 259 243 203 184 199 205 184 180 188 195 197 196 197 199 197 195 196
202 201 217 205 205 206 200 200 205 200 207 223 214 222 211 170 173 189 191 195 198 178 165 162 175 170 151 167 190 171 165 169 173 183 208 203 202 205 208 195 156 144 138 159 206 194 160 178 171 163 180 190 226 254 215 188 174 161 177 181 182 171 131 178 245 184 112 184 180 209 272 265 238 199 201 212 212 195 195 190 184 191 196 199 200 198 197 196
192 197 192 183 192 198 193 190 203 206 214 220 214 213 200 177 173 184 194 203 209 191 155 161 176 172 165 169 175 168 158 163 184 190 210 216 200 185 269 139 160 157 142 146 218 182 136 125 132 176 209 207 248 292 262 217 157 141 200 190 174 176 151 174 225 211 139 225 142 122 272 276 254 217 227 240 239 206 198 194 188 193 198 200 201 200 199 196
184 176 162 167 181 189 188 187 202 202 218 209 188 198 193 182 177 175 181 197 196 160 166 183 176 186 199 173 152 169 171 175 190 188 198 211 197 194 115 128 156 160 144 77 191 148 133 123 134 216 300 331 322 331 359 15 103 161 227 173 164 191 169 183 211 158 160 205 134 104 261 267 268 264 276 266 254 197 192 197 198 199 201 202 203 202 199 195
172 157 153 165 178 185 187 190 196 201 210 177 155 185 192 189 178 174 179 189 183 159 167 185 181 191 199 156 156 179 182 186 200 192 189 190 177 121 105 144 159 157 115 55 160 181 187 162 136 148 344 341 336 325 264 277 223 211 213 154 185 184 126 107 126 98 214 204 151 173 245 245 237 343 11 355 209 189 198 202 204 206 206 206 206 203 200 199
159 140 155 170 179 187 196 213 193 199 200 192 186 180 181 200 198 190 186 183 182 172 164 187 180 162 157 153 150 176 185 188 191 183 187 194 167 93 92 147 160 146 79 49 60 190 199 190 166 177 201 214 215 218 213 198 175 199 175 171 199 187 165 161 139 167 229 190 149 198 241 250 288 355 7 322 179 202 214 207 210 214 212 212 209 204 201 202
167 152 155 171 183 194 210 230 208 198 194 196 198 182 184 200 211 194 189 187 192 179 151 143 154 139 145 170 159 178 197 193 113 153 176 186 186 80 96 133 139 127 99 68 69 114 136 289 218 215 233 224 206 222 193 131 143 189 195 188 199 198 188 180 158 196 206 156 194 227 224 239 260 217 207 234 203 207 218 204 209 215 214 215 212 205 203 204
182 179 157 158 184 202 213 220 217 207 184 187 190 187 193 197 189 176 189 194 191 177 145 44 157 167 184 178 172 191 191 171 144 162 167 169 173 120 111 120 116 127 121 76 70 103 99 290 247 256 279 278 108 91 33 109 164 189 190 197 206 198 186 190 208 211 156 144 240 237 164 216 247 208 193 222 210 213 222 208 209 213 213 214 211 206 206 207
194 182 163 162 165 193 205 199 189 174 170 179 179 142 185 192 190 184 184 174 177 177 171 303 201 186 180 175 178 185 172 177 199 179 156 150 158 130 95 89 84 116 127 79 55 94 129 242 229 230 276 276 83 78 5 85 148 187 191 207 212 196 184 197 217 214 161 195 249 243 171 221 244 203 191 208 202 204 210 210 211 213 214 214 210 206 207 208
161 120 152 165 159 165 168 160 158 162 165 166 161 146 180 188 189 181 148 111 165 200 187 196 210 195 173 173 175 174 180 185 189 184 166 139 147 131 103 111 87 83 103 90 65 117 144 238 209 172 253 267 236 175 173 168 206 243 226 226 223 206 191 202 220 220 204 229 255 250 199 235 240 174 194 209 206 204 204 208 210 211 213 214 212 210 209 208
172 165 147 142 98 95 135 139 146 156 158 160 174 180 182 188 184 161 88 132 147 254 218 185 182 161 139 141 169 192 195 161 133 150 153 120 100 113 137 167 151 70 88 112 120 171 171 214 150 148 240 266 230 176 168 180 200 232 250 246 234 204 199 219 227 224 221 240 247 159 214 249 230 176 196 207 204 200 200 207 205 205 211 213 213 214 213 214
178 171 149 138 111 114 134 128 135 145 157 193 190 164 164 194 183 136 56 180 164 160 192 174 126 110 129 167 204 214 185 139 126 149 164 168 175 183 189 178 158 143 135 152 150 168 181 196 63 124 221 258 226 163 167 139 121 248 257 253 236 207 220 227 222 212 213 229 232 216 235 250 219 180 188 190 187 191 202 207 202 203 211 215 215 214 214 216
179 163 148 140 134 154 143 113 122 159 181 183 177 158 154 175 167 141 136 225 196 184 189 174 133 116 164 205 217 222 206 197 217 204 187 194 196 191 197 186 168 162 160 162 155 154 169 169 129 154 206 267 4 115 135 94 58 252 253 248 232 225 230 228 219 217 212 213 219 223 236 239 177 167 181 184 185 197 212 213 209 214 218 220 222 220 218 220